This demonstration page uses our WeatherBlox Daily Observations layout. Learn more.

Left ArrowRight Arrow

34.16533, -84.80231

Hourly Observations for August 17, 2018

Temp ( °F °C ) Dew Point ( °F °C ) Humidity (%) Winds ( mph kmh ) Pressure ( in mb ) Visibility ( mi km ) Precip ( " mm )
12:53 am 00:53 Clear 75 23.9 72 22.2 90 90 Calm 30.13 1020 10 16 0.00 0.00
1:53 am 01:53 Clear 73 22.8 72 22.2 96 96 Calm 30.12 1020 10 16 0.00 0.00
2:53 am 02:53 Clear 72 22.2 71 21.7 97 97 Calm 30.10 1019 10 16 0.00 0.00
3:53 am 03:53 Mostly Clear 70 21.1 70 21.1 100 100 Calm 30.11 1020 10 16 0.00 0.00
4:06 am 04:06 Mostly Cloudy 71 21.7 71 21.7 100 100 Calm 30.12 1020 10 16 0.00 0.00
4:53 am 04:53 Partly Cloudy 72 22.2 72 22.2 100 100 Calm 30.13 1020 10 16 0.00 0.00
5:53 am 05:53 Mostly Clear 71 21.7 71 21.7 100 100 Calm 30.14 1021 10 16 0.00 0.00
6:12 am 06:12 Mostly Cloudy 72 22.2 72 22.2 100 100 Calm 30.15 1021 10 16 0.00 0.00
6:45 am 06:45 Partly Cloudy 71 21.7 71 21.7 100 100 Calm 30.15 1021 10 16 0.00 0.00
6:53 am 06:53 Mostly Clear 71 21.7 71 21.7 100 100 Calm 30.15 1021 10 16 0.00 0.00
7:53 am 07:53 Mostly Cloudy 73 22.8 73 22.8 100 100 S 3 6 30.16 1021 10 16 0.00 0.00
8:53 am 08:53 Sunny 75 23.9 73 22.8 94 94 Calm 30.16 1021 10 16 0.00 0.00
9:40 am 09:40 Mostly Cloudy 77 25 73 22.8 88 88 VRB 3 6 30.15 1021 10 16 0.00 0.00
9:53 am 09:53 Cloudy 78 25.6 73 22.8 85 85 S 7 11 30.15 1021 10 16 0.00 0.00
10:53 am 10:53 Cloudy 79 26.1 73 22.8 82 82 Calm 30.15 1021 10 16 0.00 0.00
11:31 am 11:31 Mostly Cloudy 82 27.8 73 22.8 74 74 VRB 6 9 30.12 1020 10 16 0.00 0.00
11:44 am 11:44 Mostly Cloudy 83 28.3 73 22.8 72 72 VRB 5 7 30.12 1020 10 16 0.00 0.00
11:53 am 11:53 Mostly Cloudy 82 27.8 72 22.2 72 72 VRB 6 9 30.14 1021 10 16 0.00 0.00
12:02 pm 12:02 Mostly Cloudy 83 28.3 73 22.8 72 72 VRB 3 6 30.12 1020 10 16 0.00 0.00
12:11 pm 12:11 Mostly Cloudy 82 27.8 72 22.2 72 72 VRB 3 6 30.12 1020 10 16 0.00 0.00
12:21 pm 12:21 Mostly Cloudy 84 28.9 73 22.8 70 70 VRB 3 6 30.12 1020 10 16 0.00 0.00
12:29 pm 12:29 Partly Cloudy 83 28.3 73 22.8 72 72 VRB 3 6 30.12 1020 10 16 0.00 0.00
12:53 pm 12:53 Partly Cloudy 81 27.2 73 22.8 77 77 SSW 3 6 30.12 1020 10 16 0.00 0.00
1:53 pm 13:53 Partly Cloudy 86 30 74 23.3 67 67 VRB 6 9 30.11 1020 10 16 0.00 0.00
2:53 pm 14:53 Sunny 85 29.4 72 22.2 65 65 SSW 7 11 30.09 1019 10 16 0.00 0.00
3:53 pm 15:53 Mostly Sunny 83 28.3 73 22.8 72 72 Calm 30.07 1018 10 16 0.00 0.03
4:53 pm 16:53 Sunny 86 30 74 23.3 67 67 S 7 11 30.04 1017 10 16 0.00 0.00
5:53 pm 17:53 Mostly Sunny 86 30 74 23.3 67 67 S 10 17 30.04 1017 10 16 0.00 0.00
6:53 pm 18:53 Sunny 82 27.8 72 22.2 72 72 VRB 5 7 30.03 1017 10 16 0.00 0.00
7:53 pm 19:53 Sunny 80 26.7 73 22.8 79 79 S 3 6 30.04 1017 10 16 0.00 0.00
8:53 pm 20:53 Clear 77 25 74 23.3 90 90 S 5 7 30.07 1018 10 16 0.00 0.00
9:53 pm 21:53 Partly Cloudy 77 25 74 23.3 90 90 Calm 30.09 1019 10 16 0.00 0.00
10:53 pm 22:53 Mostly Cloudy 77 25 73 22.8 88 88 Calm 30.09 1019 10 16 0.00 0.00
11:15 pm 23:15 Mostly Cloudy 76 24.4 74 23.3 94 94 S 3 6 30.09 1019 10 16 0.00 0.00
11:43 pm 23:43 Partly Cloudy 76 24.4 74 23.3 94 94 Calm 30.09 1019 10 16 0.00 0.00
11:53 pm 23:53 Mostly Clear 76 24.4 73 22.8 91 91 Calm 30.08 1019 10 16 0.00 0.00

Powered by AerisWeather